星链-5272 (STARLINK-5272 )

导读 | 豆包AI

STARLINK-5272是由美国于2023年1月19日发射的星链卫星,隶属于SpaceX公司的星链星座项目。星链计划旨在构建全球卫星互联网,为全球用户提供低延迟、高速率的宽带网络服务。该卫星的发射进一步扩充了星链星座的规模,推动了全球卫星互联网络部署进程。

Basic Information
目录编号:
55298
目录名称:
STARLINK-5272
国际标识:
2023-010AF
轨道中心:
EARTH
卫星名称:
星链-5272
卫星全名:
星链-5272 (STARLINK-5272 )
卫星状态:
已陨落 最后检测时间 2024-09-23
发射日期:
2023-01-19 UTC
国别 :
美国 (US)
星等 :
--
Orbit Information
数据来源 国际轨道数据
星历时间: 2024-09-23T15:45:05+0800
轨道信息已过期538天
半长轴: 6534.587km
偏心率: 0.0018637
轨道倾角: 69.994°
近地点辐角 316.528°
升交点赤经 276.247°
平近点角 84.425°
近地点: 144.273km
远地点: 168.631km
周期: 87.617分钟
每日圈数: 16.435221
Detailed Information
固有亮度:
5
最大亮度:
2.5
卫星平台:
Starlink v1.5
覆盖范围:
全球
运营商:
太空探索技术公司
运营商所在国:
美国
制造商(研发单位):
太空探索技术公司
制造商所在国:
美国
使用方式:
暂无
Satellite Introduction
星链(Starlink)计划是由太空探索技术公司(SpaceX)提出的一个巨型低轨卫星互联网星座项目,计划在2019年至2024年间在太空搭建由约1.2万颗卫星组成的“星链”网络,其中1584颗将部署在地球上空550千米处的近地轨道,并从2020年开始工作。该卫星仍在工作。